Regional Weather Roundup
Issued by NWS

Home | Current Version | Previous Version | Graphics & Text | Print | Product List | Glossary On
Versions: 1 2 3 4 5 6 7 8 9 10 11 12 13 14 15 16 17 18 19 20 21 22 23 24 25 26 27 28 29 30 31 32 33 34 35 36 37 38 39 40 41 42 43 44 45 46 47 48 49 50
000
ASUS43 KMKX 232321
RWRWI

WISCONSIN REGIONAL WEATHER ROUNDUP
NATIONAL WEATHER SERVICE MILWAUKEE/SULLIVAN WI
600 PM CDT WED APR 23 2014

NOTE: "FAIR" INDICATES FEW OR NO CLOUDS BELOW 12,000 FEET WITH NO
SIGNIFICANT WEATHER AND/OR OBSTRUCTIONS TO VISIBILITY.

WIZ001-002-006>008-014>016-023>028-240000-
NORTHWEST WISCONSIN

CITY           SKY/WX    TMP DP  RH WIND       PRES   REMARKS
SUPERIOR ARPT  CLOUDY    37  30  77 NE6       30.03S WCI  32
ASHLAND        CLOUDY    42  28  57 N8        30.05F
HAYWARD        CLOUDY    51  24  34 S8G25     30.01F
SIREN          CLOUDY    50  23  35 SE12      29.98F
RICE LAKE      CLOUDY    49  24  36 E10       30.02F
LADYSMITH      CLOUDY    51  27  40 SE10      30.05F
EAU CLAIRE     LGT RAIN  45  37  73 S12       30.01F
MENOMONIE      DRIZZLE   42  37  82 S6        30.02F
NEW RICHMOND   RAIN      40  38  92 E9        29.98F WCI  34
OSCEOLA        DRIZZLE   40  38  93 E12       30.01F WCI  33
$$

WIZ003>005-009-010-017-018-240000-
NORTH CENTRAL WISCONSIN

CITY           SKY/WX    TMP DP  RH WIND       PRES   REMARKS
WOODRUFF       CLOUDY    55  18  23 S7        30.04F
RHINELANDER    PTSUNNY   51  19  28 SE8       30.06S
EAGLE RIVER    CLOUDY    51  15  23 SE7       30.05S
LAND O LAKES   CLOUDY    53  17  24 SE5       30.05F
PHILLIPS       CLOUDY    50  26  39 S9        30.03F
TOMAHAWK       CLOUDY    50  23  34 S5        30.05F
MEDFORD        CLOUDY    47  24  40 SE9       30.05F
MERRILL        CLOUDY    50  25  38 S5        30.07F
$$

WIZ029-030-035-036-043>047-240000-
CENTRAL WISCONSIN

CITY           SKY/WX    TMP DP  RH WIND       PRES   REMARKS
WAUSAU         CLOUDY    49  22  34 SE12      30.06F
MOSINEE        SUNNY     48  23  37 SE8       30.09F
MARSHFIELD     CLOUDY    50  24  36 SE13      30.05F
STEVENS POINT  CLOUDY    47  23  37 SE8       30.09F
WAUPACA        CLOUDY    52  25  35 SE8       30.11S
WAUTOMA        CLOUDY    52  28  39 E8        30.10S
WISC RAPIDS    CLOUDY    50  22  33 E12       30.08F
CAMP DOUGLAS   CLOUDY    52  28  40 S16       30.06S
$$

WIZ011>013-019>022-031-037>040-048>050-240000-
NORTHEAST WISCONSIN

CITY           SKY/WX    TMP DP  RH WIND       PRES   REMARKS
ANTIGO         PTSUNNY   47  26  42 SE13      30.08F
STURGEON BAY   MOSUNNY   43  10  26 SE5       30.14F
GREEN BAY      CLOUDY    47  24  40 NE9       30.13F
MANITOWOC      CLOUDY    43   8  23 NE5       30.14F
APPLETON       PTSUNNY   48  27  43 SE9       30.12S
CLINTONVILLE   CLOUDY    50  19  29 SE3       30.11F
OSHKOSH        CLOUDY    47  26  44 E10       30.11S
$$

WIZ032>034-041-042-053>061-240000-
SOUTHWEST WISCONSIN

CITY           SKY/WX    TMP DP  RH WIND       PRES   REMARKS
LA CROSSE      CLOUDY    46  35  65 E12       30.02F
SPARTA         RAIN      43  38  84 E7        30.08F
VIROQUA        CLOUDY    46  33  60 E13       30.02S
BOSCOBEL       CLOUDY    54  26  34 E8G18     30.03F
PRAIRIE DU CHI CLOUDY    52  28  39 E10       29.99F
PLATTEVILLE    FAIR      52  27  37 SE12      30.04F
$$

WIZ056-057-062-063-064-067-068-240000-
SOUTH CENTRAL WISCONSIN

CITY           SKY/WX    TMP DP  RH WIND       PRES   REMARKS
BARABOO/DELLS  CLOUDY    51  25  35 S10       30.07S
LONE ROCK      CLOUDY    52  27  38 E14       30.05F
WATERTOWN      CLOUDY    49  22  34 E10       30.09F
MADISON        CLOUDY    54  25  32 SE13      30.08F
MIDDLETON      CLOUDY    53  24  31 SE10      30.08S
MONROE         CLOUDY    52  26  36 E12       30.05F
JANESVILLE     CLOUDY    54  23  30 SE12      30.08F
$$

WIZ051-052-058>065-066-070>072-240000-
SOUTHEAST WISCONSIN

CITY           SKY/WX    TMP DP  RH WIND       PRES   REMARKS
MILWAUKEE      CLOUDY    41  22  46 NE7       30.14F
WAUKESHA       CLOUDY    45  18  33 E6        30.13F
MILWAUKEE/TIMM SUNNY     45  16  31 NE5       30.14F
RACINE         PTSUNNY   41  22  46 N8        30.15S
BURLINGTON     PTSUNNY   46  22  39 NE9       30.12S
KENOSHA        CLOUDY    43  21  41 E8        30.13F
FOND DU LAC    CLOUDY    50  25  37 SE12      30.11S
SHEBOYGAN      CLOUDY    42   8  24 NE9       30.14F
WEST BEND      CLOUDY    43  19  39 E8        30.12F
JUNEAU         CLOUDY    49  18  28 E10       30.11S
$$

LSZ147-162-240000-
LAKE SUPERIOR

STATION/POSITION TIME  TEMP    WIND        PRES    WAVE
                       AIR SEA DIR/SP/G            HT/PER
                 (UTC) (F)     (DEG/KT/KT) (MB)    (FT/S)
DEVILS ISLAND    2300   36      80/  7/  8 1018.6F
PORT WING        2240   37      40/  8/ 11 1016.6F
SAXON HARBOR     2200             CALM     1017.9F
$$

LMZ867-665-643>646-240000-
LAKE MICHIGAN

STATION/POSITION TIME  TEMP    WIND        PRES    WAVE
                       AIR SEA DIR/SP/G            HT/PER
                 (UTC) (F)     (DEG/KT/KT) (MB)    (FT/S)
NORTHPORT PIER   2200   42     150/  6/  9 1020.7F
SISTER BAY       2238   47     140/  8/ 10   N/A
KEWAUNEE LAKESHO 2200   38      30/  2/  4 1021.7F
SHEBOYGAN LAKESH 2300   38      10/  4/  4 1021.5F
PORT WASHINGTON  2200   39      90/  2/  3 1021.3F
MILWAUKEE LAKESH 2300   37      60/  5/  6   N/A
KENOSHA   LAKESH 2300   38      20/  6/  8   N/A
$$

TC  - TEMPERATURE IN CELSIUS
VSB - VISIBILITY IN STATUTE MILES
WCI - WIND CHILL INDEX
HX  - HEAT INDEX




USA.gov is the U.S. government's official web portal to all federal, state and local government web resources and services.